MDT,Max TemperatureF,Mean TemperatureF,Min TemperatureF,Max Dew PointF,MeanDew PointF,Min DewpointF,Max Humidity, Mean Humidity, Min Humidity, Max Sea Level PressureIn, Mean Sea Level PressureIn, Min Sea Level PressureIn, Max VisibilityMiles, Mean VisibilityMiles, Min VisibilityMiles, Max Wind SpeedMPH, Mean Wind SpeedMPH, Max Gust SpeedMPH,PrecipitationIn, CloudCover, Events, WindDirDegrees
2014-4-1,55,40,26,28,25,23,86,60,30,30.06,29.90,29.76,10,10,10,30,9,34,0.00,1,,131
2014-4-2,51,42,33,32,28,23,81,65,47,29.86,29.79,29.71,10,10,10,13,10,16,0.00,4,,102
2014-4-3,46,38,30,36,31,23,93,78,40,30.08,29.87,29.76,10,7,1,26,11,34,0.00,6,Rain-Snow,359
2014-4-4,59,42,26,32,26,21,87,60,25,30.10,30.02,29.94,10,10,10,14,7,20,0.00,1,,244
2014-4-5,64,48,32,34,30,25,87,56,24,29.95,29.87,29.81,10,10,10,18,7,28,0.00,3,Rain,80
2014-4-6,59,47,35,36,31,28,81,68,42,29.86,29.85,29.84,10,10,10,8,7,,0.00,,,299
2014-4-7,55,54,53,23,23,23,30,30,29,30.09,30.09,30.09,,,,17,17,,0.00,,,180
2014-4-8,73,60,44,34,32,30,61,33,22,30.16,30.07,30.01,10,10,10,21,12,30,0.00,1,,313
2014-4-9,84,62,41,32,29,23,70,33,12,30.01,29.88,29.75,10,10,10,23,12,36,0.00,0,,270
2014-4-10,62,52,41,37,34,30,76,53,30,30.07,29.99,29.83,10,10,10,26,15,32,0.00,0,,12
2014-4-11,62,58,53,34,32,32,44,38,32,29.76,29.75,29.73,10,10,7,16,8,,0.00,0,,174
2014-4-12,78,60,42,37,33,30,66,36,18,29.73,29.69,29.63,10,10,10,25,10,33,0.00,2,Rain,16
2014-4-13,53,42,30,34,29,23,93,79,41,30.18,29.95,29.74,10,7,0,32,25,43,0.00,8,Rain-Snow-Thunderstorm,6
2014-4-14,42,34,26,27,23,18,86,65,36,30.28,30.21,30.14,10,10,10,24,15,31,0.00,2,,308
2014-4-15,66,45,24,34,27,19,81,56,21,30.14,29.87,29.62,10,10,10,21,10,26,0.00,0,,217
2014-4-16,59,46,33,34,33,30,93,59,39,30.16,29.87,29.60,10,10,7,34,17,44,0.00,2,,351
2014-4-17,62,48,33,41,34,32,93,74,36,30.23,30.13,30.03,10,8,1,23,12,30,0.00,5,,139
2014-4-18,80,58,37,43,37,34,87,51,18,30.07,29.94,29.83,10,10,10,23,14,33,0.00,0,,178
2014-4-19,71,58,44,46,40,36,87,57,28,30.05,29.97,29.83,10,10,10,23,10,28,0.00,2,,54
2014-4-20,77,57,37,48,42,34,93,60,29,30.05,30.00,29.93,10,10,10,20,4,24,0.00,1,,36
2014-4-21,73,58,42,41,30,23,66,39,17,30.27,30.18,30.06,10,10,10,17,12,21,0.00,0,,53
2014-4-22,84,60,37,46,37,30,81,42,20,30.16,29.90,29.66,10,10,10,29,14,36,0.00,0,,162
2014-4-23,75,63,51,46,36,21,63,41,20,29.83,29.63,29.52,10,10,7,40,20,55,0.00,2,,311
2014-4-24,69,55,41,36,24,12,70,36,13,29.96,29.89,29.81,10,10,2,23,13,28,0.00,1,,296
2014-4-25,78,58,37,32,28,23,70,34,13,29.89,29.81,29.65,10,10,10,18,9,24,0.00,0,,186
2014-4-26,84,62,41,39,31,19,76,37,10,29.65,29.43,29.23,10,10,10,23,7,24,0.00,0,,139
2014-4-27,62,50,37,45,39,28,93,64,31,29.51,29.29,29.18,10,9,4,45,23,58,0.00,4,Rain-Thunderstorm,334
2014-4-28,53,47,41,36,32,27,81,58,35,29.82,29.62,29.48,10,10,10,43,29,59,0.00,6,,327
2014-4-29,44,40,37,36,33,30,93,77,57,30.21,30.00,29.83,10,10,5,36,26,47,0.00,8,Rain,347
2014-4-30,59,47,35,32,27,21,81,55,28,30.22,30.19,30.12,10,10,10,33,21,46,0.00,6,,331